sampling_time,wmo_synop_id,msc_id,stn_nam,stn_elev,lat,long,stn_typ,date_tm,rpt_typ,result_time,crnt_buoy_lat,crnt_buoy_lat_qa_summary,crnt_buoy_long,crnt_buoy_long_qa_summary,avg_air_temp_pst10mts,avg_air_temp_pst10mts_qa_summary,avg_sea_sfc_temp_pst10mts,avg_sea_sfc_temp_pst10mts_qa_summary,avg_batry_volt_pst10mts,avg_batry_volt_pst10mts_qa_summary,avg_solr_panl_crnt_pst10mts,avg_solr_panl_crnt_pst10mts_qa_summary,avg_wtr_lvl_snsr_volt_pst10mts,avg_wtr_lvl_snsr_volt_pst10mts_qa_summary,avg_wave_hgt_pst20mts,avg_wave_hgt_pst20mts_qa_summary,pk_wave_hgt_pst20mts,pk_wave_hgt_pst20mts_qa_summary,sig_wave_pd_pst20mts,sig_wave_pd_pst20mts_qa_summary,sig_wave_hgt_pst20mts,sig_wave_hgt_pst20mts_qa_summary,avg_max_wave_hgt_pst20mts,avg_max_wave_hgt_pst20mts_qa_summary,avg_max_wave_pd_pst20mts,avg_max_wave_pd_pst20mts_qa_summary,avg_wave_pd_pst20mts,avg_wave_pd_pst20mts_qa_summary,pk_wave_pd_pst20mts,pk_wave_pd_pst20mts_qa_summary,avg_stn_pres_pst10mts,avg_stn_pres_pst10mts_qa_summary,avg_wnd_spd_pst10mts,avg_wnd_spd_pst10mts_qa_summary,avg_wnd_dir_pst10mts,avg_wnd_dir_pst10mts_qa_summary,max_avg_wnd_spd_pst10mts,max_avg_wnd_spd_pst10mts_qa_summary,wnd_snsr_vert_disp,wnd_snsr_vert_disp_qa_summary,pres_tend_amt_pst3hrs,pres_tend_amt_pst3hrs_data_flag,pres_tend_char_pst3hrs,pres_tend_char_pst3hrs_data_flag,avg_mslp_pst10mts,avg_mslp_pst10mts_data_flag,avg_stn_pres_pst10mts_1,avg_stn_pres_pst10mts_1_qa_summary,avg_stn_pres_pst10mts_2,avg_stn_pres_pst10mts_2_qa_summary,avg_wnd_spd_pst10mts_1,avg_wnd_spd_pst10mts_1_qa_summary,avg_wnd_spd_pst10mts_2,avg_wnd_spd_pst10mts_2_qa_summary,avg_wnd_dir_pst10mts_1,avg_wnd_dir_pst10mts_1_qa_summary,avg_wnd_dir_pst10mts_2,avg_wnd_dir_pst10mts_2_qa_summary,max_avg_wnd_spd_pst10mts_1,max_avg_wnd_spd_pst10mts_1_qa_summary,max_avg_wnd_spd_pst10mts_2,max_avg_wnd_spd_pst10mts_2_qa_summary
2021-10-23T00:00:00Z,44489,9302001,WEST CHEDABUCTO BAY,0,45.48687,-61.14100000000001,18,2021-10-23T00:00:00.000Z,108,2021-10-23T00:03:15.102Z,45.48718,100,-61.1412,100,16.5,100,14.7,100,12.6,100,0.0,100,3.6,100,0.4,100,1.0,100,3.1,100,0.6,100,0.7,100,3.1,100,2.9,100,3.2,100,1012.7,100,28.8,100,208,100,33.8,100,5,100,-0.7,1,8,1,1012.7,1,1012.7,100,1012.7,100,28.8,100,27.7,100,208,100,212,100,33.8,100,33.1,100
2021-10-23T00:10:00Z,44489,9302001,WEST CHEDABUCTO BAY,0,45.48687,-61.14100000000001,18,2021-10-23T00:10:00.000Z,110,2021-10-23T00:16:21.710Z,,-1,,-1,16.6,100,14.7,100,12.6,100,0.0,100,3.6,100,,-1,,-1,,-1,,-1,,-1,,-1,,-1,,-1,1012.7,100,28.1,100,211,100,32.0,100,5,100,-0.8,1,8,1,1012.7,1,1012.7,100,1012.7,100,28.1,100,27.0,100,211,100,215,100,32.0,100,31.3,100
2021-10-23T00:20:00Z,44489,9302001,WEST CHEDABUCTO BAY,0,45.48687,-61.14100000000001,18,2021-10-23T00:20:00.000Z,110,2021-10-23T00:23:23.139Z,45.4872,100,-61.14118000000001,100,16.6,100,14.7,100,12.6,100,0.0,100,3.6,100,,-1,,-1,,-1,,-1,,-1,,-1,,-1,,-1,1012.8,100,27.4,100,211,100,31.7,100,5,100,-0.7,1,6,1,1012.8,1,1012.8,100,1012.8,100,27.4,100,25.6,100,211,100,215,100,31.7,100,29.9,100
2021-10-23T00:30:00Z,44489,9302001,WEST CHEDABUCTO BAY,0,45.48687,-61.14100000000001,18,2021-10-23T00:30:00.000Z,110,2021-10-23T00:33:34.126Z,45.48722,100,-61.14118000000001,100,16.5,100,14.7,100,12.6,100,0.0,100,3.6,100,,-1,,-1,,-1,,-1,,-1,,-1,,-1,,-1,1012.8,100,26.6,100,214,100,31.7,100,5,100,-0.8,1,6,1,1012.8,1,1012.8,100,1012.8,100,26.6,100,25.2,100,214,100,218,100,31.7,100,29.9,100
2021-10-23T00:40:00Z,44489,9302001,WEST CHEDABUCTO BAY,0,45.48687,-61.14100000000001,18,2021-10-23T00:40:00.000Z,110,2021-10-23T00:43:36.166Z,45.4872,100,-61.141169999999995,100,16.7,100,14.7,100,12.6,100,0.0,100,3.6,100,,-1,,-1,,-1,,-1,,-1,,-1,,-1,,-1,1012.7,100,28.8,100,216,100,33.5,100,5,100,-0.9,1,6,1,1012.7,1,1012.7,100,1012.7,100,28.8,100,28.1,100,216,100,219,100,33.5,100,33.1,100
2021-10-23T00:50:00Z,44489,9302001,WEST CHEDABUCTO BAY,0,45.48687,-61.14100000000001,18,2021-10-23T00:50:00.000Z,110,2021-10-23T00:53:32.637Z,45.48718,100,-61.14117,100,16.5,100,14.7,100,12.6,100,0.0,100,3.6,100,,-1,,-1,,-1,,-1,,-1,,-1,,-1,,-1,1012.7,100,27.4,100,214,100,31.3,100,5,100,-0.8,1,6,1,1012.7,1,1012.7,100,1012.7,100,27.4,100,25.9,100,214,100,218,100,31.3,100,30.6,100
2021-10-23T01:00:00Z,44489,9302001,WEST CHEDABUCTO BAY,0,45.48687,-61.14100000000001,18,2021-10-23T01:00:00.000Z,108,2021-10-23T01:03:44.185Z,45.4872,100,-61.14115,100,16.6,100,14.7,100,12.6,100,0.0,100,3.6,100,0.4,100,1.2,100,3.2,100,0.6,100,0.8,100,3.2,100,3.0,100,3.4,100,1012.7,100,29.2,100,214,100,34.6,100,5,100,-0.8,1,6,1,1012.7,1,1012.7,100,1012.7,100,29.2,100,28.1,100,214,100,218,100,34.6,100,33.5,100
2021-10-23T01:10:00Z,44489,9302001,WEST CHEDABUCTO BAY,0,45.48687,-61.14100000000001,18,2021-10-23T01:10:00.000Z,110,2021-10-23T01:16:37.420Z,45.4872,100,-61.14115,100,16.6,100,14.7,100,12.6,100,0.0,100,3.6,100,,-1,,-1,,-1,,-1,,-1,,-1,,-1,,-1,1012.9,100,29.2,100,217,100,34.9,100,5,100,-0.4,1,5,1,1012.9,1,1012.9,100,1012.9,100,29.2,100,28.1,100,217,100,221,100,34.9,100,33.8,100
2021-10-23T01:20:00Z,44489,9302001,WEST CHEDABUCTO BAY,0,45.48687,-61.14100000000001,18,2021-10-23T01:20:00.000Z,110,2021-10-23T01:23:34.349Z,45.48718,100,-61.14115,100,16.5,100,14.7,100,12.6,100,0.0,100,3.6,100,,-1,,-1,,-1,,-1,,-1,,-1,,-1,,-1,1012.8,100,28.1,100,215,100,32.4,100,5,100,-0.4,1,6,1,1012.8,1,1012.8,100,1012.8,100,28.1,100,27.0,100,215,100,219,100,32.4,100,31.3,100
2021-10-23T01:30:00Z,44489,9302001,WEST CHEDABUCTO BAY,0,45.48687,-61.14100000000001,18,2021-10-23T01:30:00.000Z,110,2021-10-23T01:32:41.489Z,45.4872,100,-61.14115,100,16.5,100,14.7,100,12.6,100,0.0,100,3.6,100,,-1,,-1,,-1,,-1,,-1,,-1,,-1,,-1,1012.8,100,27.7,100,220,100,32.8,100,5,100,-0.3,1,6,1,1012.8,1,1012.8,100,1012.8,100,27.7,100,26.3,100,220,100,224,100,32.8,100,32.4,100
2021-10-23T01:40:00Z,44489,9302001,WEST CHEDABUCTO BAY,0,45.48687,-61.14100000000001,18,2021-10-23T01:40:00.000Z,110,2021-10-23T01:44:42.557Z,45.48718,100,-61.14115,100,16.5,100,14.7,100,12.5,100,0.0,100,3.6,100,,-1,,-1,,-1,,-1,,-1,,-1,,-1,,-1,1012.7,100,25.9,100,221,100,31.3,100,5,100,-0.3,1,6,1,1012.7,1,1012.7,100,1012.7,100,25.9,100,24.8,100,221,100,225,100,31.3,100,30.2,100
2021-10-23T01:50:00Z,44489,9302001,WEST CHEDABUCTO BAY,0,45.48687,-61.14100000000001,18,2021-10-23T01:50:00.000Z,110,2021-10-23T01:53:51.623Z,45.48718,100,-61.14115,100,16.5,100,14.7,100,12.5,100,0.0,100,3.6,100,,-1,,-1,,-1,,-1,,-1,,-1,,-1,,-1,1012.5,100,24.5,100,220,100,28.8,100,5,100,-0.4,1,8,1,1012.5,1,1012.5,100,1012.5,100,24.5,100,23.8,100,220,100,224,100,28.8,100,28.1,100
2021-10-23T02:00:00Z,44489,9302001,WEST CHEDABUCTO BAY,0,45.48687,-61.14100000000001,18,2021-10-23T02:00:00.000Z,108,2021-10-23T02:02:48.249Z,45.48718,100,-61.14118000000001,100,16.5,100,14.7,100,12.5,100,0.0,100,3.6,100,0.4,100,0.9,100,3.3,100,0.6,100,0.7,100,3.3,100,3.0,100,3.4,100,1012.6,100,22.3,100,225,100,26.3,100,5,100,-0.3,1,6,1,1012.6,1,1012.6,100,1012.6,100,22.3,100,21.6,100,225,100,229,100,26.3,100,25.6,100
2021-10-23T02:10:00Z,44489,9302001,WEST CHEDABUCTO BAY,0,45.48687,-61.14100000000001,18,2021-10-23T02:10:00.000Z,110,2021-10-23T02:16:57.424Z,45.4872,100,-61.14117,100,16.3,100,14.7,100,12.6,100,0.0,100,3.6,100,,-1,,-1,,-1,,-1,,-1,,-1,,-1,,-1,1012.8,100,19.8,100,231,100,24.1,100,5,100,-0.2,1,6,1,1012.8,1,1012.8,100,1012.9,100,19.8,100,19.1,100,231,100,235,100,24.1,100,23.0,100
2021-10-23T02:20:00Z,44489,9302001,WEST CHEDABUCTO BAY,0,45.48687,-61.14100000000001,18,2021-10-23T02:20:00.000Z,110,2021-10-23T02:22:57.831Z,45.48715,100,-61.14115,100,16.1,100,14.7,100,12.6,100,0.0,100,3.6,100,,-1,,-1,,-1,,-1,,-1,,-1,,-1,,-1,1012.9,100,18.7,100,227,100,23.0,100,5,100,0.0,1,5,1,1012.9,1,1012.9,100,1012.9,100,18.7,100,17.6,100,227,100,231,100,23.0,100,22.0,100
2021-10-23T02:30:00Z,44489,9302001,WEST CHEDABUCTO BAY,0,45.48687,-61.14100000000001,18,2021-10-23T02:30:00.000Z,110,2021-10-23T02:32:56.821Z,45.48718,100,-61.14115,100,16.2,100,14.7,100,12.6,100,0.0,100,3.6,100,,-1,,-1,,-1,,-1,,-1,,-1,,-1,,-1,1012.8,100,20.2,100,218,100,24.1,100,5,100,0.0,1,4,1,1012.8,1,1012.8,100,1012.8,100,20.2,100,19.4,100,218,100,222,100,24.1,100,23.0,100
2021-10-23T02:40:00Z,44489,9302001,WEST CHEDABUCTO BAY,0,45.48687,-61.14100000000001,18,2021-10-23T02:40:00.000Z,110,2021-10-23T02:42:53.680Z,45.48718,100,-61.141169999999995,100,16.1,100,14.7,100,12.5,100,0.0,100,3.6,100,,-1,,-1,,-1,,-1,,-1,,-1,,-1,,-1,1012.7,100,19.8,100,217,100,24.1,100,5,100,0.0,1,5,1,1012.7,1,1012.7,100,1012.8,100,19.8,100,18.4,100,217,100,222,100,24.1,100,22.7,100
2021-10-23T02:50:00Z,44489,9302001,WEST CHEDABUCTO BAY,0,45.48687,-61.14100000000001,18,2021-10-23T02:50:00.000Z,110,2021-10-23T02:52:58.862Z,45.48718,100,-61.14117,100,16.4,100,14.7,100,12.5,100,0.0,100,3.6,100,,-1,,-1,,-1,,-1,,-1,,-1,,-1,,-1,1012.8,100,21.6,100,218,100,27.7,100,5,100,0.0,1,5,1,1012.8,1,1012.8,100,1012.8,100,21.6,100,20.5,100,218,100,222,100,27.7,100,27.0,100
2021-10-23T03:00:00Z,44489,9302001,WEST CHEDABUCTO BAY,0,45.48687,-61.14100000000001,18,2021-10-23T03:00:00.000Z,108,2021-10-23T03:02:55.308Z,45.48717,100,-61.141130000000004,100,16.4,100,14.7,100,12.5,100,0.0,100,3.6,100,0.3,100,0.8,100,3.1,100,0.5,100,0.6,100,3.1,100,2.9,100,3.3,100,1013.0,100,16.6,100,231,100,22.3,100,5,100,0.3,1,3,1,1013.0,1,1013.0,100,1013.0,100,16.6,100,15.8,100,231,100,236,100,22.3,100,20.2,100
2021-10-23T03:10:00Z,44489,9302001,WEST CHEDABUCTO BAY,0,45.48687,-61.14100000000001,18,2021-10-23T03:10:00.000Z,110,2021-10-23T03:16:06.672Z,45.48727,100,-61.1412,100,16.5,100,14.7,100,12.5,100,0.0,100,3.6,100,,-1,,-1,,-1,,-1,,-1,,-1,,-1,,-1,1012.7,100,22.3,100,212,100,27.4,100,5,100,0.0,1,0,1,1012.7,1,1012.7,100,1012.7,100,22.3,100,20.9,100,212,100,216,100,27.4,100,27.0,100
2021-10-23T03:20:00Z,44489,9302001,WEST CHEDABUCTO BAY,0,45.48687,-61.14100000000001,18,2021-10-23T03:20:00.000Z,110,2021-10-23T03:23:08.176Z,45.48725,100,-61.14118000000001,100,16.5,100,14.7,100,12.5,100,0.0,100,3.6,100,,-1,,-1,,-1,,-1,,-1,,-1,,-1,,-1,1012.7,100,20.5,100,219,100,25.6,100,5,100,-0.1,1,8,1,1012.7,1,1012.7,100,1012.7,100,20.5,100,19.4,100,219,100,223,100,25.6,100,25.2,100
2021-10-23T03:30:00Z,44489,9302001,WEST CHEDABUCTO BAY,0,45.48687,-61.14100000000001,18,2021-10-23T03:30:00.000Z,110,2021-10-23T03:33:14.967Z,45.48725,100,-61.14117,100,16.4,100,14.7,100,12.5,100,0.0,100,3.6,100,,-1,,-1,,-1,,-1,,-1,,-1,,-1,,-1,1012.6,100,21.2,100,224,100,24.8,100,5,100,-0.2,1,8,1,1012.6,1,1012.6,100,1012.6,100,21.2,100,20.5,100,224,100,227,100,24.8,100,24.1,100
2021-10-23T03:40:00Z,44489,9302001,WEST CHEDABUCTO BAY,0,45.48687,-61.14100000000001,18,2021-10-23T03:40:00.000Z,110,2021-10-23T03:48:01.390Z,45.48723,100,-61.141169999999995,100,16.5,100,14.7,100,12.5,100,0.0,100,3.6,100,,-1,,-1,,-1,,-1,,-1,,-1,,-1,,-1,1012.6,100,26.6,100,224,100,31.0,100,5,100,-0.1,1,8,1,1012.6,1,1012.6,100,1012.6,100,26.6,100,25.6,100,224,100,228,100,31.0,100,29.9,100
2021-10-23T03:50:00Z,44489,9302001,WEST CHEDABUCTO BAY,0,45.48687,-61.14100000000001,18,2021-10-23T03:50:00.000Z,110,2021-10-23T03:53:12.349Z,45.48725,100,-61.14117,100,16.5,100,14.7,100,12.5,100,0.0,100,3.6,100,,-1,,-1,,-1,,-1,,-1,,-1,,-1,,-1,1012.4,100,28.4,100,220,100,33.1,100,5,100,-0.2,1,8,1,1012.4,1,1012.4,100,1012.5,100,28.4,100,27.4,100,220,100,224,100,33.1,100,32.0,100
2021-10-23T04:00:00Z,44489,9302001,WEST CHEDABUCTO BAY,0,45.48687,-61.14100000000001,18,2021-10-23T04:00:00.000Z,108,2021-10-23T04:03:12.435Z,45.48717,100,-61.141169999999995,100,16.6,100,14.7,100,12.5,100,0.0,100,3.6,100,0.3,100,0.8,100,3.0,100,0.5,100,0.6,100,3.0,100,2.8,100,2.8,100,1012.5,100,29.9,100,218,100,36.0,100,5,100,-0.2,1,8,1,1012.5,1,1012.5,100,1012.5,100,29.9,100,28.4,100,218,100,222,100,36.0,100,35.3,100
2021-10-23T04:10:00Z,44489,9302001,WEST CHEDABUCTO BAY,0,45.48687,-61.14100000000001,18,2021-10-23T04:10:00.000Z,110,2021-10-23T04:17:23.910Z,45.48717,100,-61.14117,100,16.5,100,14.7,100,12.5,100,0.0,100,3.6,100,,-1,,-1,,-1,,-1,,-1,,-1,,-1,,-1,1012.4,100,26.3,100,216,100,31.7,100,5,100,-0.5,1,8,1,1012.4,1,1012.4,100,1012.4,100,26.3,100,24.8,100,216,100,220,100,31.7,100,30.6,100
2021-10-23T04:20:00Z,44489,9302001,WEST CHEDABUCTO BAY,0,45.48687,-61.14100000000001,18,2021-10-23T04:20:00.000Z,110,2021-10-23T04:23:24.765Z,45.48718,100,-61.141169999999995,100,16.4,100,14.7,100,12.5,100,0.0,100,3.6,100,,-1,,-1,,-1,,-1,,-1,,-1,,-1,,-1,1012.3,100,26.3,100,211,100,30.2,100,5,100,-0.5,1,8,1,1012.3,1,1012.3,100,1012.3,100,26.3,100,24.8,100,211,100,215,100,30.2,100,29.5,100
2021-10-23T04:30:00Z,44489,9302001,WEST CHEDABUCTO BAY,0,45.48687,-61.14100000000001,18,2021-10-23T04:30:00.000Z,110,2021-10-23T04:33:35.786Z,45.48718,100,-61.14117,100,16.5,100,14.7,100,12.5,100,0.0,100,3.6,100,,-1,,-1,,-1,,-1,,-1,,-1,,-1,,-1,1012.2,100,27.4,100,215,100,32.0,100,5,100,-0.6,1,8,1,1012.2,1,1012.2,100,1012.2,100,27.4,100,25.9,100,215,100,218,100,32.0,100,31.7,100
2021-10-23T04:40:00Z,44489,9302001,WEST CHEDABUCTO BAY,0,45.48687,-61.14100000000001,18,2021-10-23T04:40:00.000Z,110,2021-10-23T04:43:43.253Z,45.48717,100,-61.141169999999995,100,16.1,100,14.7,100,12.5,100,0.0,100,3.6,100,,-1,,-1,,-1,,-1,,-1,,-1,,-1,,-1,1012.4,100,25.6,100,213,100,28.1,100,5,100,-0.3,1,8,1,1012.4,1,1012.4,100,1012.4,100,25.6,100,24.5,100,213,100,217,100,28.1,100,27.4,100
2021-10-23T04:50:00Z,44489,9302001,WEST CHEDABUCTO BAY,0,45.48687,-61.14100000000001,18,2021-10-23T04:50:00.000Z,110,2021-10-23T04:54:37.442Z,45.48715,100,-61.14117,100,16.0,100,14.7,100,12.5,100,0.0,100,3.6,100,,-1,,-1,,-1,,-1,,-1,,-1,,-1,,-1,1012.4,100,24.5,100,207,100,28.1,100,5,100,-0.1,1,8,1,1012.4,1,1012.4,100,1012.4,100,24.5,100,23.0,100,207,100,211,100,28.1,100,26.6,100
2021-10-23T05:00:00Z,44489,9302001,WEST CHEDABUCTO BAY,0,45.48687,-61.14100000000001,18,2021-10-23T05:00:00.000Z,108,2021-10-23T05:03:42.422Z,45.4872,100,-61.14118000000001,100,16.0,100,14.7,100,12.5,100,0.0,100,3.6,100,0.2,100,0.6,100,3.0,100,0.4,100,0.5,100,3.0,100,2.7,100,2.9,100,1012.2,100,22.0,100,203,100,25.6,100,5,100,-0.4,1,8,1,1012.2,1,1012.2,100,1012.2,100,22.0,100,20.9,100,203,100,207,100,25.6,100,24.5,100
2021-10-23T05:10:00Z,44489,9302001,WEST CHEDABUCTO BAY,0,45.48687,-61.14100000000001,18,2021-10-23T05:10:00.000Z,110,2021-10-23T05:16:48.832Z,45.48718,100,-61.14117,100,15.9,100,14.7,100,12.5,100,0.0,100,3.6,100,,-1,,-1,,-1,,-1,,-1,,-1,,-1,,-1,1012.2,100,22.7,100,202,100,25.9,100,5,100,-0.7,1,8,1,1012.2,1,1012.2,100,1012.2,100,22.7,100,21.6,100,202,100,206,100,25.9,100,24.8,100
2021-10-23T05:20:00Z,44489,9302001,WEST CHEDABUCTO BAY,0,45.48687,-61.14100000000001,18,2021-10-23T05:20:00.000Z,110,2021-10-23T05:23:44.292Z,45.4872,100,-61.141169999999995,100,16.0,100,14.7,100,12.5,100,0.0,100,3.6,100,,-1,,-1,,-1,,-1,,-1,,-1,,-1,,-1,1012.2,100,22.7,100,210,100,25.2,100,5,100,-0.7,1,6,1,1012.2,1,1012.2,100,1012.2,100,22.7,100,22.0,100,210,100,214,100,25.2,100,25.2,100
2021-10-23T05:30:00Z,44489,9302001,WEST CHEDABUCTO BAY,0,45.48687,-61.14100000000001,18,2021-10-23T05:30:00.000Z,110,2021-10-23T05:32:43.682Z,45.48718,100,-61.14118000000001,100,15.6,100,14.7,100,12.5,100,0.0,100,3.6,100,,-1,,-1,,-1,,-1,,-1,,-1,,-1,,-1,1012.2,100,21.6,100,198,100,27.0,100,5,100,-0.6,1,6,1,1012.2,1,1012.2,100,1012.3,100,21.6,100,20.2,100,198,100,201,100,27.0,100,26.3,100
2021-10-23T05:40:00Z,44489,9302001,WEST CHEDABUCTO BAY,0,45.48687,-61.14100000000001,18,2021-10-23T05:40:00.000Z,110,2021-10-23T05:42:44.438Z,45.48722,100,-61.1412,100,15.7,100,14.7,100,12.5,100,0.0,100,3.6,100,,-1,,-1,,-1,,-1,,-1,,-1,,-1,,-1,1012.4,100,27.0,100,204,100,31.7,100,5,100,-0.3,1,6,1,1012.4,1,1012.4,100,1012.4,100,27.0,100,25.9,100,204,100,208,100,31.7,100,31.0,100
2021-10-23T05:50:00Z,44489,9302001,WEST CHEDABUCTO BAY,0,45.48687,-61.14100000000001,18,2021-10-23T05:50:00.000Z,110,2021-10-23T05:52:55.083Z,45.48722,100,-61.14118000000001,100,15.8,100,14.7,100,12.5,100,0.0,100,3.6,100,,-1,,-1,,-1,,-1,,-1,,-1,,-1,,-1,1012.6,100,26.6,100,216,100,31.7,100,5,100,-0.1,1,5,1,1012.6,1,1012.6,100,1012.6,100,26.6,100,25.6,100,216,100,220,100,31.7,100,31.3,100
2021-10-23T06:00:00Z,44489,9302001,WEST CHEDABUCTO BAY,0,45.48687,-61.14100000000001,18,2021-10-23T06:00:00.000Z,108,2021-10-23T06:03:00.867Z,45.48718,100,-61.14118000000001,100,15.7,100,14.7,100,12.5,100,0.0,100,3.6,100,0.3,100,0.6,100,2.7,100,0.4,100,0.5,100,2.8,100,2.6,100,2.6,100,1012.7,100,25.6,100,209,100,29.5,100,5,100,-0.3,1,5,1,1012.7,1,1012.7,100,1012.7,100,25.6,100,24.5,100,209,100,214,100,29.5,100,28.4,100
2021-10-23T06:10:00Z,44489,9302001,WEST CHEDABUCTO BAY,0,45.48687,-61.14100000000001,18,2021-10-23T06:10:00.000Z,110,2021-10-23T06:15:57.524Z,45.48717,100,-61.14118000000001,100,15.6,100,14.7,100,12.5,100,0.0,100,3.6,100,,-1,,-1,,-1,,-1,,-1,,-1,,-1,,-1,1012.6,100,22.0,100,204,100,26.3,100,5,100,-0.1,1,5,1,1012.6,1,1012.6,100,1012.6,100,22.0,100,20.9,100,204,100,208,100,26.3,100,25.2,100
2021-10-23T06:20:00Z,44489,9302001,WEST CHEDABUCTO BAY,0,45.48687,-61.14100000000001,18,2021-10-23T06:20:00.000Z,110,2021-10-23T06:23:04.108Z,45.48717,100,-61.14118000000001,100,15.5,100,14.7,100,12.5,100,0.0,100,3.6,100,,-1,,-1,,-1,,-1,,-1,,-1,,-1,,-1,1012.3,100,19.4,100,199,100,22.0,100,5,100,-0.3,1,5,1,1012.3,1,1012.3,100,1012.4,100,19.4,100,18.4,100,199,100,203,100,22.0,100,21.6,100
2021-10-23T06:30:00Z,44489,9302001,WEST CHEDABUCTO BAY,0,45.48687,-61.14100000000001,18,2021-10-23T06:30:00.000Z,110,2021-10-23T06:33:01.529Z,45.48717,100,-61.14117,100,15.4,100,14.7,100,12.5,100,0.0,100,3.6,100,,-1,,-1,,-1,,-1,,-1,,-1,,-1,,-1,1012.5,100,20.5,100,200,100,24.8,100,5,100,-0.2,1,5,1,1012.5,1,1012.5,100,1012.5,100,20.5,100,19.4,100,200,100,205,100,24.8,100,23.8,100
2021-10-23T06:40:00Z,44489,9302001,WEST CHEDABUCTO BAY,0,45.48687,-61.14100000000001,18,2021-10-23T06:40:00.000Z,110,2021-10-23T06:43:04.366Z,45.48718,100,-61.14118000000001,100,15.5,100,14.7,100,12.5,100,0.0,100,3.6,100,,-1,,-1,,-1,,-1,,-1,,-1,,-1,,-1,1012.5,100,19.8,100,203,100,22.7,100,5,100,-0.1,1,5,1,1012.5,1,1012.5,100,1012.5,100,19.8,100,19.1,100,203,100,207,100,22.7,100,22.0,100
2021-10-23T06:50:00Z,44489,9302001,WEST CHEDABUCTO BAY,0,45.48687,-61.14100000000001,18,2021-10-23T06:50:00.000Z,110,2021-10-23T06:53:03.895Z,45.48722,100,-61.14122,100,15.5,100,14.7,100,12.4,100,0.0,100,3.6,100,,-1,,-1,,-1,,-1,,-1,,-1,,-1,,-1,1012.5,100,22.3,100,203,100,25.9,100,5,100,0.1,1,0,1,1012.5,1,1012.5,100,1012.6,100,22.3,100,21.6,100,203,100,207,100,25.9,100,25.6,100
2021-10-23T07:00:00Z,44489,9302001,WEST CHEDABUCTO BAY,0,45.48687,-61.14100000000001,18,2021-10-23T07:00:00.000Z,108,2021-10-23T07:03:04.567Z,45.48718,100,-61.14118000000001,100,15.6,100,14.7,100,12.4,100,0.0,100,3.6,100,0.2,100,0.5,100,2.8,100,0.3,100,0.4,100,2.7,100,2.6,100,2.4,100,1012.5,100,22.3,100,201,100,25.2,100,5,100,0.0,1,4,1,1012.5,1,1012.5,100,1012.5,100,22.3,100,21.6,100,201,100,205,100,25.2,100,24.5,100
2021-10-23T07:10:00Z,44489,9302001,WEST CHEDABUCTO BAY,0,45.48687,-61.14100000000001,18,2021-10-23T07:10:00.000Z,110,2021-10-23T07:16:09.284Z,45.4872,100,-61.1412,100,15.6,100,14.7,100,12.5,100,0.0,100,3.6,100,,-1,,-1,,-1,,-1,,-1,,-1,,-1,,-1,1012.4,100,20.5,100,201,100,24.5,100,5,100,0.0,1,5,1,1012.4,1,1012.4,100,1012.4,100,20.5,100,19.8,100,201,100,205,100,24.5,100,23.8,100
2021-10-23T07:20:00Z,44489,9302001,WEST CHEDABUCTO BAY,0,45.48687,-61.14100000000001,18,2021-10-23T07:20:00.000Z,110,2021-10-23T07:23:16.368Z,45.48718,100,-61.14118000000001,100,15.6,100,14.7,100,12.5,100,0.0,100,3.6,100,,-1,,-1,,-1,,-1,,-1,,-1,,-1,,-1,1012.4,100,21.6,100,208,100,25.2,100,5,100,0.1,1,3,1,1012.4,1,1012.4,100,1012.4,100,21.6,100,20.5,100,208,100,211,100,25.2,100,24.8,100
2021-10-23T07:30:00Z,44489,9302001,WEST CHEDABUCTO BAY,0,45.48687,-61.14100000000001,18,2021-10-23T07:30:00.000Z,110,2021-10-23T07:33:19.314Z,45.4872,100,-61.1412,100,15.8,100,14.7,100,12.4,100,0.0,100,3.6,100,,-1,,-1,,-1,,-1,,-1,,-1,,-1,,-1,1012.5,100,20.2,100,211,100,24.1,100,5,100,0.3,1,1,1,1012.5,1,1012.5,100,1012.5,100,20.2,100,19.4,100,211,100,215,100,24.1,100,23.8,100
2021-10-23T07:40:00Z,44489,9302001,WEST CHEDABUCTO BAY,0,45.48687,-61.14100000000001,18,2021-10-23T07:40:00.000Z,110,2021-10-23T07:43:20.959Z,45.4872,100,-61.14118000000001,100,15.8,100,14.7,100,12.4,100,0.0,100,3.6,100,,-1,,-1,,-1,,-1,,-1,,-1,,-1,,-1,1012.6,100,23.0,100,204,100,27.0,100,5,100,0.2,1,2,1,1012.6,1,1012.6,100,1012.6,100,23.0,100,22.0,100,204,100,208,100,27.0,100,27.0,100
2021-10-23T07:50:00Z,44489,9302001,WEST CHEDABUCTO BAY,0,45.48687,-61.14100000000001,18,2021-10-23T07:50:00.000Z,110,2021-10-23T07:54:22.537Z,45.48718,100,-61.14122,100,16.1,100,14.7,100,12.4,100,0.0,100,3.6,100,,-1,,-1,,-1,,-1,,-1,,-1,,-1,,-1,1012.7,100,18.4,100,222,100,25.6,100,5,100,0.3,1,1,1,1012.7,1,1012.7,100,1012.7,100,18.4,100,17.6,100,222,100,226,100,25.6,100,24.5,100
2021-10-23T08:00:00Z,44489,9302001,WEST CHEDABUCTO BAY,0,45.48687,-61.14100000000001,18,2021-10-23T08:00:00.000Z,108,2021-10-23T08:03:23.420Z,45.48717,100,-61.1412,100,15.9,100,14.7,100,12.4,100,0.0,100,3.6,100,0.2,100,0.6,100,2.7,100,0.4,100,0.5,100,2.7,100,2.7,100,2.6,100,1012.5,100,17.3,100,210,100,25.9,100,5,100,0.3,1,1,1,1012.5,1,1012.5,100,1012.5,100,17.3,100,16.6,100,210,100,214,100,25.9,100,25.9,100
2021-10-23T08:10:00Z,44489,9302001,WEST CHEDABUCTO BAY,0,45.48687,-61.14100000000001,18,2021-10-23T08:10:00.000Z,110,2021-10-23T08:16:25.476Z,45.4872,100,-61.1412,100,15.9,100,14.7,100,12.4,100,0.0,100,3.6,100,,-1,,-1,,-1,,-1,,-1,,-1,,-1,,-1,1012.5,100,22.7,100,212,100,30.6,100,5,100,0.4,1,1,1,1012.5,1,1012.5,100,1012.5,100,22.7,100,22.3,100,212,100,216,100,30.6,100,29.9,100
2021-10-23T08:20:00Z,44489,9302001,WEST CHEDABUCTO BAY,0,45.48687,-61.14100000000001,18,2021-10-23T08:20:00.000Z,110,2021-10-23T08:23:31.873Z,45.4872,100,-61.14118000000001,100,15.7,100,14.7,100,12.4,100,0.0,100,3.6,100,,-1,,-1,,-1,,-1,,-1,,-1,,-1,,-1,1012.8,100,20.9,100,215,100,24.1,100,5,100,0.6,1,3,1,1012.8,1,1012.8,100,1012.8,100,20.9,100,20.2,100,215,100,219,100,24.1,100,24.1,100
2021-10-23T08:30:00Z,44489,9302001,WEST CHEDABUCTO BAY,0,45.48687,-61.14100000000001,18,2021-10-23T08:30:00.000Z,110,2021-10-23T08:33:30.160Z,45.48722,100,-61.14118000000001,100,15.6,100,14.7,100,12.4,100,0.0,100,3.6,100,,-1,,-1,,-1,,-1,,-1,,-1,,-1,,-1,1012.9,100,21.2,100,216,100,24.1,100,5,100,0.7,1,3,1,1012.9,1,1012.9,100,1012.9,100,21.2,100,20.2,100,216,100,220,100,24.1,100,23.8,100
2021-10-23T08:40:00Z,44489,9302001,WEST CHEDABUCTO BAY,0,45.48687,-61.14100000000001,18,2021-10-23T08:40:00.000Z,110,2021-10-23T08:43:28.393Z,45.48718,100,-61.141169999999995,100,15.6,100,14.7,100,12.4,100,0.0,100,3.6,100,,-1,,-1,,-1,,-1,,-1,,-1,,-1,,-1,1013.0,100,22.0,100,220,100,26.6,100,5,100,0.6,1,3,1,1013.0,1,1013.0,100,1013.0,100,22.0,100,21.2,100,220,100,224,100,26.6,100,25.9,100
2021-10-23T08:50:00Z,44489,9302001,WEST CHEDABUCTO BAY,0,45.48687,-61.14100000000001,18,2021-10-23T08:50:00.000Z,110,2021-10-23T08:54:42.094Z,45.48718,100,-61.14118000000001,100,15.7,100,14.7,100,12.4,100,0.0,100,3.6,100,,-1,,-1,,-1,,-1,,-1,,-1,,-1,,-1,1013.1,100,23.8,100,220,100,27.0,100,5,100,0.5,1,3,1,1013.1,1,1013.1,100,1013.1,100,23.8,100,23.0,100,220,100,224,100,27.0,100,25.6,100
2021-10-23T09:00:00Z,44489,9302001,WEST CHEDABUCTO BAY,0,45.48687,-61.14100000000001,18,2021-10-23T09:00:00.000Z,108,2021-10-23T09:03:42.532Z,45.48718,100,-61.141169999999995,100,15.7,100,14.7,100,12.4,100,0.0,100,3.6,100,0.2,100,0.6,100,3.0,100,0.3,100,0.4,100,2.9,100,2.7,100,2.4,100,1013.0,100,22.3,100,216,100,25.2,100,5,100,0.3,1,3,1,1013.0,1,1013.0,100,1013.1,100,22.3,100,21.2,100,216,100,220,100,25.2,100,24.8,100
2021-10-23T09:10:00Z,44489,9302001,WEST CHEDABUCTO BAY,0,45.48687,-61.14100000000001,18,2021-10-23T09:10:00.000Z,110,2021-10-23T09:16:44.533Z,45.48718,100,-61.14117,100,15.7,100,14.7,100,12.4,100,0.0,100,3.6,100,,-1,,-1,,-1,,-1,,-1,,-1,,-1,,-1,1013.1,100,19.1,100,217,100,23.0,100,5,100,0.6,1,3,1,1013.1,1,1013.1,100,1013.1,100,19.1,100,18.4,100,217,100,221,100,23.0,100,22.0,100